Location: Le Petit-Vavre
(46.5081°N, 1.5239°E)
Time: 20:19:14
(UTC+00:00)

Cosmos 1869 Rocket - Pass Details

Date: 03 March 2021
Orbit: 605 x 633 km, 82.5° (Epoch: 20 April)

Event Time Altitude Azimuth Distance (km) Brightness Sun altitude
Rises 19:50:08 0° 191° (S) 2,858 6.9 -22.5°
Reaches altitude 10° 19:52:20 10° 193° (SSW) 1,962 6.1 -22.9°
Maximum altitude 19:56:40 77° 280° (W) 636 3.6 -23.6°
Drops below altitude 10° 20:01:06 10° 6° (N) 1,996 6.3 -24.3°
Sets 20:03:21 0° 8° (N) 2,912 7.1 -24.7°
